Tracking 28790 objects as of 19-Apr-2024
HD Live streaming from Space Station
objects crossing your sky now

BREEZE-M R/B

Track BREEZE-M R/B now!


NORAD ID: 35874
Int'l Code: 2009-050B
Perigee: 7,703.7 km
Apogee: 34,039.3 km
Inclination: 12.7 °
Period: 745.8 minutes
Semi major axis: 27242 km
RCS: 10.0476 m2 (large)
Launch date: September 17, 2009
Source: Commonwealth of Independent States (former USSR) (CIS)
Launch site: TYURATAM MISSILE AND SPACE COMPLEX (TTMTR)

Note: This is a ROCKET BODY
Your satellite tracking list
Your tracking list is empty




NASA's NSSDC Master Catalog

Two Line Element Set (TLE):
1 35874U 09050B   24109.58595531 -.00000056  00000-0  00000-0 0  9990
2 35874  12.7414  76.7609 4833559  25.9973 177.6859  1.93077879102136
Source of the keplerian elements: AFSPC